Location: Hackbridge
(51.3833°N, 0.1500°W)
Time: 10:33:18
(UTC+00:00)

STARLINK-45 - Pass Details

Date: 13 October 2019
Orbit: 548 x 551 km, 53.0° (Epoch: 21 November)

Event Time Altitude Azimuth Distance (km) Brightness Sun altitude
Rises 18:47:55 0° 232° (SW) 2,710 7.9 -15.7°
Reaches altitude 10° 18:50:10 10° 228° (SW) 1,820 6.8 -16.0°
Maximum altitude 18:54:12 53° 152° (SSE) 680 3.8 -16.6°
Enters shadow 18:55:34 36° 96° (E) 890 4.1 -16.8°
